TimeCST,TemperatureF,Dew PointF,Humidity,Sea Level PressureIn,VisibilityMPH,Wind Direction,Wind SpeedMPH,Gust SpeedMPH,PrecipitationIn,Events,Conditions,WindDirDegrees,DateUTC
12:15 AM,39.2,28.9,67,29.90,10.0,ENE,5.8,-,N/A,,Clear,60,2013-02-27 06:15:00
12:35 AM,39.0,28.9,67,29.90,10.0,ENE,5.8,-,N/A,,Clear,60,2013-02-27 06:35:00
12:55 AM,38.5,28.8,68,29.90,10.0,East,6.9,-,N/A,,Clear,80,2013-02-27 06:55:00
1:15 AM,37.9,28.8,70,29.91,10.0,ENE,8.1,-,N/A,,Clear,70,2013-02-27 07:15:00
1:35 AM,37.6,28.8,70,29.91,10.0,NE,5.8,-,N/A,,Clear,50,2013-02-27 07:35:00
1:55 AM,37.0,28.9,73,29.91,10.0,NE,6.9,-,N/A,,Clear,50,2013-02-27 07:55:00
2:15 AM,36.7,29.1,74,29.93,10.0,NNE,6.9,-,N/A,,Clear,30,2013-02-27 08:15:00
2:35 AM,36.7,28.9,74,29.92,10.0,NE,6.9,-,N/A,,Clear,40,2013-02-27 08:35:00
2:55 AM,36.7,28.9,74,29.93,10.0,NNE,6.9,-,N/A,,Clear,30,2013-02-27 08:55:00
3:15 AM,36.1,29.1,76,29.93,10.0,NNE,5.8,-,N/A,,Clear,30,2013-02-27 09:15:00
3:35 AM,35.6,28.9,77,29.94,10.0,NNE,6.9,-,N/A,,Clear,30,2013-02-27 09:35:00
3:55 AM,35.2,28.9,78,29.94,10.0,NNE,6.9,-,N/A,,Clear,20,2013-02-27 09:55:00
4:55 AM,33.8,28.8,82,29.98,10.0,NNW,5.8,-,N/A,,Clear,340,2013-02-27 10:55:00
5:15 AM,33.8,28.8,82,29.99,10.0,North,4.6,-,N/A,,Clear,360,2013-02-27 11:15:00
5:35 AM,33.3,28.2,82,30.02,10.0,NNW,10.4,-,N/A,,Scattered Clouds,330,2013-02-27 11:35:00
5:55 AM,33.4,28.6,82,30.02,10.0,NNW,6.9,-,N/A,,Mostly Cloudy,340,2013-02-27 11:55:00
6:15 AM,34.2,28.8,81,30.03,10.0,NNW,5.8,-,N/A,,Overcast,330,2013-02-27 12:15:00
6:35 AM,34.5,28.8,79,30.04,10.0,NNW,6.9,-,N/A,,Overcast,340,2013-02-27 12:35:00
6:55 AM,34.7,28.4,78,30.04,10.0,North,5.8,-,N/A,,Overcast,350,2013-02-27 12:55:00
7:15 AM,34.5,28.2,78,30.04,10.0,NNW,6.9,-,N/A,,Mostly Cloudy,330,2013-02-27 13:15:00
7:35 AM,34.0,28.2,79,30.06,10.0,NW,3.5,-,N/A,,Scattered Clouds,310,2013-02-27 13:35:00
7:55 AM,35.2,28.9,78,30.08,10.0,NW,8.1,-,N/A,,Clear,310,2013-02-27 13:55:00
8:15 AM,36.5,29.3,75,30.09,10.0,NW,10.4,-,N/A,,Scattered Clouds,320,2013-02-27 14:15:00
8:35 AM,37.6,29.7,73,30.10,10.0,NW,8.1,-,N/A,,Scattered Clouds,310,2013-02-27 14:35:00
9:15 AM,39.7,28.9,65,30.12,10.0,NW,11.5,16.1,N/A,,Clear,310,2013-02-27 15:15:00
9:35 AM,41.9,28.8,60,30.12,10.0,NW,9.2,-,N/A,,Clear,320,2013-02-27 15:35:00
9:55 AM,43.7,25.0,48,30.12,10.0,NW,13.8,17.3,N/A,,Clear,310,2013-02-27 15:55:00
10:15 AM,43.9,20.8,40,30.12,10.0,NNW,13.8,18.4,N/A,,Clear,330,2013-02-27 16:15:00
10:35 AM,45.1,21.9,40,30.13,10.0,NW,11.5,21.9,N/A,,Clear,320,2013-02-27 16:35:00
10:55 AM,45.7,20.5,37,30.14,10.0,NW,11.5,18.4,N/A,,Clear,310,2013-02-27 16:55:00
11:15 AM,46.4,19.2,34,30.15,10.0,NNW,12.7,23.0,N/A,,Clear,330,2013-02-27 17:15:00
11:35 AM,47.1,17.8,31,30.15,10.0,NW,13.8,19.6,N/A,,Clear,310,2013-02-27 17:35:00
11:55 AM,47.7,21.0,35,30.15,10.0,NW,11.5,23.0,N/A,,Clear,310,2013-02-27 17:55:00
12:15 PM,47.8,23.4,38,30.15,10.0,WNW,10.4,24.2,N/A,,Clear,300,2013-02-27 18:15:00
12:35 PM,48.9,24.4,38,30.15,10.0,NNW,12.7,23.0,N/A,,Clear,330,2013-02-27 18:35:00
12:55 PM,49.5,25.5,39,30.15,10.0,NW,18.4,24.2,N/A,,Clear,310,2013-02-27 18:55:00
1:15 PM,49.3,25.5,40,30.14,10.0,NNW,13.8,23.0,N/A,,Clear,330,2013-02-27 19:15:00
1:35 PM,50.0,24.6,37,30.14,10.0,NW,15.0,24.2,N/A,,Clear,320,2013-02-27 19:35:00
1:55 PM,50.7,24.1,35,30.14,10.0,NW,18.4,24.2,N/A,,Clear,310,2013-02-27 19:55:00
2:15 PM,52.3,24.4,34,30.13,10.0,NW,15.0,21.9,N/A,,Clear,310,2013-02-27 20:15:00
2:35 PM,52.5,23.0,32,30.13,10.0,NW,17.3,23.0,N/A,,Clear,320,2013-02-27 20:35:00
2:55 PM,52.7,19.8,27,30.13,10.0,WNW,16.1,28.8,N/A,,Clear,300,2013-02-27 20:55:00
3:15 PM,53.1,19.6,27,30.13,10.0,NW,15.0,25.3,N/A,,Clear,320,2013-02-27 21:15:00
3:35 PM,53.1,18.7,26,30.12,10.0,NW,17.3,28.8,N/A,,Clear,310,2013-02-27 21:35:00
3:55 PM,52.9,19.6,27,30.13,10.0,NW,15.0,23.0,N/A,,Clear,320,2013-02-27 21:55:00
4:15 PM,52.7,18.3,26,30.13,10.0,NW,12.7,26.5,N/A,,Clear,320,2013-02-27 22:15:00
4:35 PM,52.7,17.6,25,30.14,10.0,NNW,16.1,24.2,N/A,,Clear,340,2013-02-27 22:35:00
4:55 PM,51.3,18.7,28,30.14,10.0,NW,15.0,23.0,N/A,,Clear,320,2013-02-27 22:55:00
5:15 PM,50.5,20.5,31,30.14,10.0,NNW,18.4,27.6,N/A,,Clear,340,2013-02-27 23:15:00
5:35 PM,49.3,20.8,33,30.15,10.0,NNW,16.1,24.2,N/A,,Clear,340,2013-02-27 23:35:00
5:55 PM,48.6,21.4,34,30.15,10.0,NNW,13.8,23.0,N/A,,Clear,340,2013-02-27 23:55:00
6:15 PM,47.1,21.7,37,30.16,10.0,NNW,12.7,21.9,N/A,,Clear,330,2013-02-28 00:15:00
6:35 PM,45.7,21.2,38,30.17,10.0,NW,13.8,23.0,N/A,,Clear,320,2013-02-28 00:35:00
6:55 PM,45.0,22.1,40,30.18,10.0,NW,16.1,24.2,N/A,,Clear,320,2013-02-28 00:55:00
7:15 PM,44.2,24.1,45,30.19,10.0,NW,18.4,25.3,N/A,,Clear,320,2013-02-28 01:15:00
7:35 PM,43.3,24.8,48,30.20,10.0,NNW,12.7,20.7,N/A,,Clear,330,2013-02-28 01:35:00
8:15 PM,42.3,25.3,51,30.21,10.0,NNW,12.7,17.3,N/A,,Clear,330,2013-02-28 02:15:00
8:35 PM,41.5,25.3,53,30.21,10.0,NNW,10.4,-,N/A,,Clear,330,2013-02-28 02:35:00
8:55 PM,41.2,25.0,53,30.21,10.0,NNW,6.9,16.1,N/A,,Clear,330,2013-02-28 02:55:00
9:15 PM,40.5,24.8,54,30.21,10.0,NNW,9.2,-,N/A,,Clear,340,2013-02-28 03:15:00
9:35 PM,40.1,24.8,54,30.22,10.0,NNW,10.4,16.1,N/A,,Clear,330,2013-02-28 03:35:00
9:55 PM,39.4,25.2,57,30.23,10.0,NNW,8.1,17.3,N/A,,Clear,330,2013-02-28 03:55:00
10:15 PM,38.8,25.2,58,30.23,10.0,NNW,11.5,-,N/A,,Clear,340,2013-02-28 04:15:00
10:35 PM,38.5,25.2,59,30.23,10.0,North,6.9,-,N/A,,Clear,350,2013-02-28 04:35:00
10:55 PM,37.8,25.3,61,30.24,10.0,NNW,9.2,-,N/A,,Clear,340,2013-02-28 04:55:00
11:15 PM,37.4,25.3,62,30.24,10.0,NNW,5.8,-,N/A,,Clear,340,2013-02-28 05:15:00
11:55 PM,36.1,25.7,66,30.25,10.0,Calm,Calm,-,N/A,,Clear,0,2013-02-28 05:55:00